Simultaneous Nadir Overpasses (SNOs) Predictions

Prediction of SNOs between GOES-15 and METOP-C Satellite Orbit:

Table of predicted SNOs for the next 14.0 days since TLE Epoch: 3/20/2021
Index Date Time (GOES-15) GOES-15 Lat,Lon METOP-C Lat,Lon Distance(km) Time Diff (sec)
1 03/20/2021 18:05:39 0.15,-128.45 0.09,-128.07 42.82 80
2 03/22/2021 06:24:38 -0.15,-128.36 -1.11,-132.66 490.55 80
3 03/23/2021 06:01:18 -0.14,-128.35 -0.00,-127.67 77.68 80
4 03/24/2021 18:20:12 0.14,-128.43 0.97,-132.24 434.67 80
5 03/25/2021 18:02:12 0.14,-128.42 -0.15,-127.25 133.66 80
6 03/27/2021 06:21:11 -0.14,-128.32 -0.94,-131.83 400.16 80
7 03/28/2021 05:57:51 -0.14,-128.31 0.18,-126.84 167.67 80
8 03/29/2021 18:16:43 0.14,-128.37 0.84,-131.40 345.65 80
9 03/30/2021 17:58:44 0.14,-128.36 -0.27,-126.40 222.17 80
10 04/01/2021 06:17:43 -0.14,-128.25 -0.75,-131.00 312.53 80
11 04/02/2021 05:54:24 -0.13,-128.23 0.36,-126.00 254.36 80
